Flag for France Weather past 2 weeks in Taiohae, Marquesas Islands, France

Now
78 °F

Warm.


Feels Like: 80 °F
Forecast: 78 / 80 °F
Wind: 12 mph from Southeast

Location: Atuona

Current Time: Jul 21, 2014 at 10:44:36 PM

Latest Report: Jul 21, 2014 at 9:30 PM


Visibility: N/A

Pressure: 29.89 "Hg

Humidity: 74%

Dew point: 69 °F

Location of TaiohaeLocation

Historic Weather in Taiohae — Graph

°F

Taiohae temperature yesterday

Maximum temperature yesterday: 85 °F (at 10:30 AM)
Minimum temperature yesterday: 74 °F (at 2:30 AM)
Average temperature yesterday: 79 °F

Past Weeks' High & Low Weather Summary

 TemperatureHumidityPressure
High87 °F (Jul 12, 11:30 AM)89% (Jul 7, 3:30 AM)30.01 "Hg (Jul 7, 3:30 AM)
Low71 °F (Jul 18, 3:30 AM)53% (Jul 16, 10:30 AM)29.78 "Hg (Jul 10, 2:30 PM)
Average79 °F73%29.90 "Hg
* Reported Jul 6 9:30 PM — Jul 21 9:30 PM, Taiohae, Weather by CustomWeather, © 2014

Note: Actual official high and low records may vary slightly from our data, if they occured in-between our weather recording intervals... More about our weather records

Advertising

Taiohae weather history for previous 24 hours

 ConditionsComfort  
Time TempWeatherWind HumidityBarometerVisibility
9:30 PM
Jul 21
78 °FWarm.12 mph74%29.89 "HgN/A
8:30 PM78 °FWarm.12 mph75%29.88 "HgN/A
7:30 PM78 °FWarm.12 mph74%29.87 "HgN/A
6:30 PM78 °FWarm.13 mph73%29.85 "HgN/A
5:30 PM78 °FWarm.12 mph72%29.83 "HgN/A
4:30 PM79 °FScattered clouds.10 mph71%29.81 "Hg25 mi
3:30 PM81 °FWarm.13 mph67%29.80 "HgN/A
2:30 PM82 °FPassing clouds.14 mph66%29.80 "Hg25 mi
1:30 PM82 °FScattered clouds.15 mph65%29.82 "Hg22 mi
12:30 PM85 °FWarm.13 mph61%29.85 "HgN/A
11:30 AM83 °FScattered clouds.14 mph66%29.88 "Hg22 mi
10:30 AM79 °FPartly sunny.2 mph74%29.90 "Hg19 mi
9:30 AM77 °FOvercast.10 mph80%29.93 "Hg9 mi
8:30 AM80 °FPartly sunny.13 mph67%29.92 "Hg19 mi
7:30 AM79 °FWarm.9 mph70%29.91 "HgN/A
6:30 AM78 °FWarm.8 mph70%29.89 "HgN/A
5:30 AM77 °FPassing clouds.9 mph70%29.87 "Hg16 mi
4:30 AM77 °FWarm.8 mph72%29.86 "HgN/A
3:30 AM77 °FWarm.14 mph78%29.85 "HgN/A
2:30 AM78 °FWarm.7 mph74%29.85 "HgN/A
1:30 AM77 °FWarm.14 mph75%29.87 "HgN/A
12:30 AM78 °FWarm.13 mph74%29.87 "HgN/A
11:30 PM
Jul 20
78 °FWarm.14 mph73%29.88 "HgN/A
10:30 PM78 °FWarm.12 mph73%29.88 "HgN/A
Weather by CustomWeather, © 2014

See weather overviewHow to use our weather pages